Regional Weather Roundup
Issued by NWS Northern Indiana

Home | Current Version | Previous Version | Graphics & Text | Print | Product List | Glossary On
Versions: 1 2 3 4 5 6 7 8 9 10 11 12 13 14 15 16 17 18 19 20 21 22 23 24 25 26 27 28 29 30 31 32 33 34 35 36 37 38 39 40 41 42 43 44 45 46 47 48 49 50
680
ASUS43 KIWX 130400
RWRIWX

KIWX WEATHER ROUNDUP
NATIONAL WEATHER SERVICE NORTHERN INDIANA
1100 PM EST TUE DEC 12 2017

NOTE: "FAIR" INDICATES FEW OR NO CLOUDS BELOW 12,000 FEET WITH NO
SIGNIFICANT WEATHER AND/OR OBSTRUCTIONS TO VISIBILITY.

* THESE STATIONS ARE NOT UNDER NWS QUALITY CONTROL. THEY ALSO MAY NOT
  REPORT WEATHER SUCH AS PRECIPITATION OR FOG.

INZ001>027-130500-
NORTHERN INDIANA

CITY           SKY/WX    TMP DP  RH WIND       PRES   REMARKS
GARY*          CLOUDY    21   9  58 W10       30.00S WCI  10
SOUTH BEND     CLOUDY    17  11  77 SW8       29.95F WCI   7
GOSHEN         CLOUDY    18  10  71 W14       29.94F WCI   4
MONTICELLO*    PTCLDY    15   7  69 CALM      30.00F
FORT WAYNE     CLOUDY    18  10  71 W15       29.95F WCI   4
PERU/GRISSOM   CLOUDY    17  10  72 W10       29.98F WCI   5

$$
INZ028>050-130500-
CENTRAL INDIANA

CITY           SKY/WX    TMP DP  RH WIND       PRES   REMARKS
LAFAYETTE      CLOUDY    16   9  74 CALM      30.02F
KOKOMO*        CLOUDY    16  10  77 W12       30.00F WCI   3
MUNCIE*        CLEAR     17   8  67 W6        29.98F WCI   9
INDIANAPOLIS   CLEAR     18   6  59 NW9       30.02S WCI   7

$$
MIZ043>046-050>051-056>058-064>065-071>073-077>080-130500-
SOUTHWEST LOWER MICHIGAN

CITY           SKY/WX    TMP DP  RH WIND       PRES   REMARKS
BATTLE CREEK   CLOUDY    17  10  74 W3        29.90F
BENTON HARBOR  CLOUDY    23  11  60 NW7       29.94F WCI  15
COLDWATER*     FLURRIES  17  13  84 W5        29.91F WCI  10
HILLSDALE*     CLOUDY    18   9  68 W6        29.87F WCI   9
HOLLAND        LGT SNOW  18  15  88 CALM      29.93F FOG
GRAND RAPIDS   CLOUDY    18  10  71 NW7       29.90F WCI   9
KALAMAZOO      FLURRIES  17  13  84 W3        29.92F
STURGIS*       LGT SNOW  17  14  88 CALM      29.92F
THREE RIVERS*  FLURRIES  18  14  87 CALM      29.93F

$$
OHZ001>008-015>018-024>025-130500-
NORTHWEST OHIO

CITY           SKY/WX    TMP DP  RH WIND       PRES   REMARKS
DEFIANCE       CLOUDY    19  10  68 NW7       29.95S WCI  10
FINDLAY        CLOUDY    20   7  57 NW10      29.92S WCI   9
TOLEDO EXPRESS CLOUDY    18   7  62 W8        29.92F WCI   8
TOLEDO METCALF CLOUDY    18   4  54 W9        29.93F WCI   7
LIMA           LGT SNOW  18  16  92 NW10      29.93S FOG     WCI   6

$$
AND FOR LAKE MICHIGAN COASTAL AND OPEN LAKE BUOY OBSERVATIONS

STATION/POSITION TEMP    WIND        PRES    VSBY  WAVE
                 AIR SEA DIR/SP/G                  HT/PER
                 (F)     (DEG/KT/KT) (MB)    (MI)  (FT/S)
CALUMET HARBOR    20     240/  6/  9 1014.8F
MICHIGAN CITY     23     290/ 14/ 16   N/A
BURNS HARBOR      23     280/ 11/ 17 1015.2F
SAINT JOSEPH      24     320/ 12/ 16 1014.2

$$
&&




USA.gov is the U.S. government's official web portal to all federal, state and local government web resources and services.